North Platte, NE

2:06 AM CDT on May 24, 2018 (GMT -0500)
North Platte Regional-Bird

Weather History for KLBF - January, 2014

Change the Weather History Date:

Thursday, January 9, 2014

  Actual Average Record
Temperature  
Mean Temperature 27 °F 25 °F  
Max Temperature 38 °F 39 °F 62 °F (1928)
Min Temperature 16 °F 11 °F -27 °F (1881)
Degree Days  
Heating Degree Days 38 40  
Month to date heating degree days 396 365  
Since 1 July heating degree days 3148 3145  
Cooling Degree Days 0 0  
Month to date cooling degree days 0 0  
Year to date cooling degree days 0 0  
Moisture  
Dew Point 19 °F    
Average Humidity 72    
Maximum Humidity 92    
Minimum Humidity 52    
Precipitation  
Precipitation 0.00 in 0.01 in 0.37 in (2011)
Month to date precipitation 0.06 0.11  
Year to date precipitation 0.06 0.11  
Snow  
Snow 0.00 in 0.10 in 5.80 in (2011)
Month to date snowfall 0.8 1.4  
Since 1 July snowfall 7.5 12.2  
Snow Depth 0.00 in    
Sea Level Pressure  
Sea Level Pressure 29.99 in    
Wind  
Wind Speed 10 mph (South)    
Max Wind Speed 18 mph    
Max Gust Speed 22 mph    
Visibility 7 miles    
Events      
T = Trace of Precipitation, MM = Missing Value Source: NWS Daily Summary

Daily Weather History Graph

Daily Weather History Graph

Search for Another Location

Airport or City:

Astronomy

Jan. 09, 2014 Rise Set
Actual Time 8:07 AM CST 5:32 PM CST
Civil Twilight 7:36 AM CST 6:03 PM CST
Nautical Twilight 7:02 AM CST 6:37 PM CST
Astronomical Twilight 6:29 AM CST 7:10 PM CST
Moon 1:01 PM CST (1/9) 2:15 AM CST (1/9)
Length of Visible Light 10h 26m
Length of Day
9h 24m
Waxing Gibbous, 66% of the Moon is Illuminated
Jan 9
Waxing Gibbous
Jan 15
Full
Jan 23
Last Quarter
Jan 30
New
Feb 6
First Quarter

Hourly Weather History & Observations

Time (CST) Temp. Windchill Dew Point Humidity Pressure Visibility Wind Dir Wind Speed Gust Speed Precip Events Conditions
12:53 AM 21.0 °F 8.6 °F 18.0 °F 88% 30.22 in 10.0 mi South 12.7 mph - N/A   Overcast
1:53 AM 21.0 °F 11.4 °F 18.0 °F 88% 30.20 in 9.0 mi South 8.1 mph - N/A   Overcast
2:53 AM 21.0 °F 10.6 °F 18.0 °F 88% 30.17 in 8.0 mi South 9.2 mph - N/A   Overcast
3:53 AM 19.9 °F 7.9 °F 16.0 °F 85% 30.15 in 7.0 mi South 11.5 mph - N/A   Overcast
4:53 AM 18.0 °F 6.1 °F 15.1 °F 88% 30.15 in 6.0 mi South 10.4 mph - N/A   Mostly Cloudy
5:23 AM 17.6 °F 5.7 °F 14.0 °F 86% 30.03 in 5.0 mi South 10.4 mph - N/A   Scattered Clouds
5:53 AM 18.0 °F 5.4 °F 14.0 °F 84% 30.12 in 5.0 mi South 11.5 mph 18.4 mph N/A   Partly Cloudy
6:53 AM 18.0 °F 9.8 °F 14.0 °F 84% 30.12 in 6.0 mi South 5.8 mph - N/A   Clear
7:53 AM 16.0 °F 6.3 °F 12.9 °F 88% 30.11 in 5.0 mi South 6.9 mph - N/A   Clear
8:53 AM 17.1 °F 7.6 °F 12.9 °F 84% 30.10 in 5.0 mi South 6.9 mph - N/A   Clear
9:53 AM 19.9 °F 8.6 °F 15.1 °F 81% 30.10 in 6.0 mi SSW 10.4 mph - N/A   Haze
10:53 AM 24.1 °F 13.1 °F 17.1 °F 75% 30.07 in 7.0 mi South 11.5 mph - N/A   Clear
11:53 AM 30.9 °F 21.7 °F 21.0 °F 67% 30.00 in 10.0 mi South 11.5 mph 19.6 mph N/A   Clear
12:53 PM 36.0 °F 28.5 °F 21.9 °F 57% 29.94 in 10.0 mi South 10.4 mph - N/A   Clear
1:53 PM 36.0 °F 26.3 °F 21.0 °F 55% 29.91 in 10.0 mi South 16.1 mph - N/A   Clear
2:53 PM 37.0 °F 29.3 °F 21.0 °F 52% 29.89 in 10.0 mi South 11.5 mph 20.7 mph N/A   Clear
3:53 PM 37.0 °F 28.1 °F 23.0 °F 57% 29.88 in 10.0 mi South 15.0 mph - N/A   Clear
5:53 PM 30.9 °F 21.7 °F 21.9 °F 69% 29.87 in 9.0 mi SE 11.5 mph - N/A   Clear
6:53 PM 27.0 °F 19.5 °F 21.0 °F 78% 29.89 in 8.0 mi SSE 6.9 mph - N/A   Clear
7:53 PM 27.0 °F 18.0 °F 21.9 °F 81% 29.89 in 7.0 mi SSE 9.2 mph - N/A   Clear
8:53 PM 27.0 °F 18.0 °F 21.9 °F 81% 29.88 in 8.0 mi South 9.2 mph - N/A   Clear
9:53 PM 27.0 °F 17.3 °F 23.0 °F 85% 29.85 in 7.0 mi SSE 10.4 mph - N/A   Clear
10:44 PM 26.6 °F 18.2 °F 23.0 °F 86% 29.75 in 7.0 mi South 8.1 mph - N/A   Mostly Cloudy
10:53 PM 26.1 °F 16.8 °F 23.0 °F 88% 29.83 in 7.0 mi South 9.2 mph - N/A   Overcast
11:13 PM 26.6 °F 18.2 °F 23.0 °F 86% 29.74 in 7.0 mi South 8.1 mph - N/A   Overcast
11:53 PM 26.1 °F 19.4 °F 23.0 °F 88% 29.79 in 6.0 mi SSW 5.8 mph - N/A   Overcast